Theta_e
324 326 329 321 308 309 304 307 313 311 313 322 321 323 330 334 331 320 342 351 352 349 347 346 350 352 352 353 355 356 357 357 357 357 357 356 356 356 356 356 357 357 356 352 352 351 349 348 349
320 324 322 315 306 301 305 312 310 313 321 322 325 323 330 330 340 341 342 349 352 350 349 346 350 351 352 352 353 355 357 357 357 357 356 356 356 356 356 356 357 357 356 352 351 351 349 348 348
320 324 314 311 306 302 304 312 312 323 325 321 322 329 336 334 341 342 347 349 348 349 351 348 349 350 351 351 351 353 354 355 355 356 356 356 356 356 356 355 356 356 354 352 352 352 350 348 346
317 318 315 305 303 307 309 312 314 320 324 324 324 330 339 345 342 345 348 347 348 353 351 346 347 349 351 351 351 350 350 351 352 353 355 356 356 355 355 354 355 354 354 352 352 354 353 349 346
317 315 307 305 306 310 312 314 314 313 321 322 323 329 331 342 346 347 346 348 348 349 348 347 345 348 349 350 350 349 349 349 350 352 353 354 354 354 354 353 354 354 354 354 354 353 350 349 347
310 313 304 302 306 310 313 314 314 314 319 320 320 330 332 343 344 345 346 348 350 349 349 347 347 346 347 347 347 347 347 349 350 350 351 352 352 353 352 352 351 352 353 353 353 351 350 348 346
307 307 304 305 306 308 311 316 313 314 316 318 323 320 331 337 345 345 346 348 349 349 348 348 346 342 340 340 342 343 345 346 346 348 349 350 349 349 350 350 349 349 349 349 349 349 349 350 348
309 308 303 305 304 305 313 314 315 314 316 325 327 319 326 336 344 344 344 344 345 348 347 348 346 346 343 341 338 340 341 341 342 344 344 345 347 348 349 348 348 348 348 348 348 348 347 347 346
312 302 300 303 305 307 313 310 315 317 319 324 328 329 337 340 341 340 339 339 341 344 346 346 348 348 345 342 339 338 340 340 341 341 341 341 348 347 347 340 343 344 345 347 347 347 346 345 344
306 302 303 308 309 308 310 310 312 312 315 320 324 336 338 338 337 335 335 335 337 339 342 345 345 344 345 343 342 343 342 343 344 344 345 341 339 336 336 336 337 338 339 341 342 345 343 342 343
307 302 306 307 309 309 308 308 312 310 310 317 320 329 334 334 334 334 334 335 335 337 339 341 344 346 346 344 345 344 343 341 340 338 340 340 336 334 335 334 335 338 337 341 340 340 342 343 342
304 307 307 307 307 307 306 309 308 310 311 317 320 327 333 331 333 334 333 334 335 334 334 336 336 337 339 336 336 335 336 337 336 334 337 337 332 329 328 329 330 328 331 333 335 336 334 336 341
304 305 307 308 308 308 309 307 307 308 313 316 319 325 330 331 332 335 335 335 335 330 330 330 331 333 333 333 332 331 329 330 330 331 331 334 333 330 328 326 326 325 326 326 328 330 333 333 335
308 308 308 309 308 308 306 306 307 308 312 313 315 323 329 330 331 333 334 333 331 329 327 328 328 331 330 330 330 328 327 326 326 325 325 327 328 329 330 328 327 326 327 327 328 327 327 328 329
309 304 306 306 307 306 308 303 303 309 310 310 312 315 322 328 330 331 334 332 329 327 326 327 328 329 329 327 326 325 324 323 322 320 321 321 323 323 323 324 322 320 320 320 321 320 321 321 324
305 305 299 305 307 308 307 299 306 310 309 308 310 314 316 322 327 331 334 331 328 326 324 325 325 327 326 325 323 321 321 321 319 318 318 317 318 318 318 318 317 316 317 316 316 315 314 315 316
302 296 299 302 309 307 305 301 306 310 309 309 309 312 314 319 325 329 333 331 327 325 324 324 324 324 324 323 321 320 320 318 317 317 315 315 315 316 316 315 314 314 314 313 313 313 312 312 311
297 299 302 301 306 307 304 303 307 309 308 309 310 312 313 316 319 326 330 329 326 324 324 323 322 323 322 320 319 317 317 316 315 314 313 313 312 313 313 311 310 311 311 310 310 310 310 310 308
303 301 300 304 308 305 304 304 306 308 309 309 309 310 311 313 319 325 328 327 325 324 322 321 320 320 318 316 314 313 311 312 311 311 311 311 310 311 309 309 308 309 308 308 308 307 307 307 308
303 301 299 303 306 305 304 303 307 308 309 310 310 310 311 312 314 320 326 324 322 321 321 320 319 319 318 316 315 314 313 311 310 309 308 309 308 308 308 307 307 308 307 307 306 306 306 306 307
302 299 300 300 304 305 303 300 303 308 310 311 311 312 312 312 312 315 323 321 320 320 319 319 319 318 317 316 316 315 313 308 306 306 305 306 308 308 308 308 308 307 308 305 305 306 304 303 305
298 305 304 301 299 294 303 292 300 305 306 309 311 312 312 312 313 314 320 320 319 319 319 318 319 318 317 317 314 311 307 304 304 304 305 305 307 307 307 307 307 307 306 305 304 305 304 304 301
300 305 303 301 298 297 297 294 299 305 303 304 306 308 310 311 312 313 314 320 319 318 318 318 318 318 316 316 314 311 308 307 306 305 304 304 304 305 306 306 306 305 304 303 302 302 302 302 301
303 301 300 300 297 290 295 295 296 299 300 303 306 308 310 311 312 313 314 320 318 317 318 317 317 316 316 315 313 311 309 307 304 303 302 302 303 303 304 305 304 304 302 302 301 301 300 300 299
299 296 288 287 287 287 297 294 298 302 304 305 305 307 309 311 312 312 312 317 316 316 317 316 315 313 315 314 312 312 311 307 304 303 302 302 301 301 302 302 302 301 300 300 300 298 298 297 296
297 296 289 283 285 289 297 292 296 304 306 307 307 308 308 310 312 311 312 313 317 316 316 314 313 312 312 312 312 313 312 307 305 304 304 302 302 301 302 301 300 299 299 298 297 296 296 296 295
298 293 299 292 293 288 292 296 301 303 303 305 305 305 304 306 307 310 312 313 314 316 315 314 311 310 310 311 311 311 311 306 305 305 304 302 302 301 300 299 298 298 298 296 295 294 294 294 294
299 300 292 293 283 282 288 290 292 295 298 301 303 302 302 305 306 306 308 312 313 314 315 314 312 309 309 309 309 308 306 306 305 303 301 300 300 300 299 298 296 296 296 295 294 292 293 292 292
294 293 294 294 291 284 282 288 297 296 299 300 304 302 301 304 305 306 307 309 312 313 312 311 309 308 307 306 305 304 303 303 302 300 299 298 298 298 296 295 295 294 293 293 292 291 291 291 289
298 294 294 287 286 290 288 287 301 301 301 299 299 299 300 305 305 306 305 307 308 311 310 308 307 306 305 304 303 302 302 301 299 298 297 297 296 296 294 293 292 292 292 291 291 290 290 289 288
Wind_Speed
17 14 10 9 6 9 17 18 5 6 1 8 6 11 20 18 9 13 13 18 19 16 13 11 10 11 11 11 10 10 10 10 11 10 11 10 10 9 8 7 6 6 6 5 5 6 6 6 7
11 15 8 6 9 12 10 7 8 2 14 5 11 4 15 10 10 11 12 12 20 14 12 11 9 10 10 11 11 11 11 9 11 11 10 9 10 9 9 7 6 6 6 5 4 5 5 5 6
13 14 7 7 11 13 15 9 9 17 11 2 3 6 9 8 11 6 10 13 16 16 13 12 9 9 10 10 9 9 10 10 11 11 11 10 9 9 8 7 6 5 6 5 4 4 4 4 3
7 6 6 7 15 20 12 10 5 10 6 3 5 11 9 9 6 10 12 13 12 16 14 10 9 10 9 9 9 9 9 9 10 10 10 9 9 8 8 7 6 6 6 5 3 3 4 2 1
8 7 10 14 18 19 6 2 8 8 8 6 7 12 9 8 11 15 13 12 11 12 12 9 8 9 9 9 9 8 9 8 9 9 9 8 8 8 7 6 6 5 5 4 3 4 3 2 2
7 9 11 14 18 14 6 4 2 9 7 7 9 13 7 12 11 13 11 11 13 12 11 10 10 10 10 9 8 8 8 7 7 7 7 7 7 6 6 5 4 4 3 3 4 3 4 4 3
11 10 15 19 18 20 14 7 3 10 11 11 6 5 10 15 14 13 12 11 11 13 11 10 9 11 13 10 9 8 9 8 7 5 5 4 5 5 6 5 5 5 5 3 3 2 3 5 5
9 10 19 16 15 17 6 8 4 12 12 5 5 5 8 16 15 12 12 13 11 9 12 11 10 9 9 8 9 9 8 8 7 7 4 4 2 4 7 8 8 7 6 5 5 4 4 4 5
11 9 13 18 14 14 10 6 9 11 11 3 5 14 14 21 19 15 13 13 11 9 8 9 9 7 8 9 8 9 9 8 8 7 5 5 0 3 5 7 6 3 0 4 6 5 5 6 8
8 10 17 18 12 13 16 5 8 11 10 8 11 17 16 18 17 17 15 14 14 12 11 9 10 9 9 9 8 8 9 5 2 4 3 4 6 5 6 5 4 6 2 3 4 6 8 7 5
13 14 17 20 15 12 12 16 13 11 13 14 11 19 17 16 15 16 16 16 14 14 10 11 8 8 9 8 8 6 6 5 4 5 4 4 4 3 3 2 2 0 3 3 4 5 5 5 4
13 16 14 18 17 16 11 15 18 15 15 14 14 16 22 21 17 15 16 16 15 14 13 12 10 6 4 4 3 4 4 3 4 5 2 4 3 3 2 2 2 3 3 4 3 2 3 6 5
14 17 18 19 20 18 16 18 18 18 15 15 11 8 19 18 18 16 15 16 15 14 11 11 9 6 4 4 5 5 4 4 5 4 2 0 4 5 4 3 2 1 1 1 3 4 3 2 4
16 21 19 18 19 19 19 20 17 17 17 19 15 15 18 17 18 16 16 15 14 13 12 10 10 7 6 6 6 4 5 4 4 4 3 2 2 1 5 5 5 4 2 2 2 3 4 4 4
13 19 18 20 18 21 21 24 22 18 19 19 16 14 14 18 16 16 14 13 14 12 13 9 8 8 6 7 6 5 5 5 5 4 4 4 4 2 4 4 4 4 3 3 3 1 2 3 3
19 20 20 17 20 21 21 20 16 15 18 19 16 10 10 11 16 17 15 14 15 14 14 11 10 8 8 7 5 5 4 5 5 5 4 3 3 3 2 3 4 4 2 3 4 3 4 4 4
10 15 20 21 16 17 11 17 15 16 11 13 14 13 12 13 17 17 16 14 16 14 14 12 10 10 8 7 5 6 5 4 4 5 5 4 3 3 4 4 4 4 2 4 3 3 3 3 4
14 16 19 18 15 15 18 16 13 16 15 12 12 10 14 15 16 16 16 15 13 13 14 12 9 10 8 6 5 5 3 4 4 4 4 5 3 1 4 4 1 2 3 4 3 2 3 1 3
18 21 23 21 21 20 16 17 16 14 16 18 14 14 13 14 17 15 15 16 12 11 13 13 10 10 7 7 7 7 6 5 4 5 6 6 4 2 2 4 2 4 4 4 3 2 1 4 4
20 18 17 19 19 19 19 21 17 15 18 18 19 14 17 14 15 17 18 17 13 11 10 10 10 9 6 5 5 6 7 5 5 5 5 5 6 2 3 3 3 3 4 4 4 3 3 3 4
16 15 19 21 21 22 19 23 20 24 24 24 23 18 13 14 14 9 18 18 15 13 13 10 10 10 7 6 4 4 6 5 4 5 3 4 5 5 5 4 4 3 4 4 4 4 6 2 2
18 15 17 19 17 15 13 19 16 18 18 19 17 15 11 8 9 8 15 19 18 14 15 13 13 12 9 7 5 7 6 7 6 6 6 4 6 6 5 5 4 5 4 4 3 4 3 4 4
21 19 16 12 15 19 14 13 10 14 9 15 20 23 22 19 21 4 7 20 18 15 11 9 8 11 10 7 5 5 5 5 6 7 10 6 5 6 6 5 6 6 4 5 6 5 6 5 4
10 12 12 14 13 14 13 15 14 6 9 12 14 17 18 18 19 18 17 9 15 13 9 8 7 8 9 7 5 6 8 6 7 8 7 6 5 5 6 6 6 6 5 5 4 5 7 5 6
9 8 6 4 5 11 14 11 10 9 14 13 15 14 15 15 15 14 16 9 11 11 8 9 10 7 7 9 7 7 8 7 7 8 6 8 6 4 5 6 6 5 6 6 5 5 6 6 5
15 15 8 6 6 11 15 8 1 8 14 12 13 11 10 8 6 8 11 8 7 12 11 9 9 7 6 8 10 7 8 5 5 7 4 5 5 6 6 6 6 6 6 6 6 4 4 5 5
16 15 12 14 11 4 8 15 14 17 11 9 9 9 9 6 9 7 4 6 7 5 8 10 10 9 7 7 7 6 6 7 6 7 6 4 8 7 7 7 7 6 6 6 6 4 5 5 5
12 3 7 4 5 10 13 15 6 12 6 7 4 4 8 7 10 12 13 2 4 5 4 8 8 7 6 7 6 5 4 4 5 7 7 8 7 8 8 7 8 7 6 7 6 5 5 6 4
8 13 6 5 6 3 7 6 13 11 8 8 2 8 9 6 5 6 9 13 1 2 2 6 6 5 1 5 5 6 5 6 6 6 7 8 8 9 8 8 8 8 6 7 6 8 6 6 6
2 7 7 4 9 7 8 17 15 4 3 10 11 13 12 5 5 3 6 7 11 4 4 7 5 4 4 4 5 5 6 6 6 7 7 7 8 8 8 7 7 7 7 7 6 7 6 5 6
Wind_Direction
295 284 233 261 242 230 256 250 90 91 73 57 9 46 88 43 18 98 105 103 104 110 118 130 116 117 118 111 109 116 127 138 138 141 138 137 135 135 134 134 127 131 128 122 113 107 99 86 79
299 296 259 273 254 275 273 77 82 1 85 102 58 15 69 66 73 110 104 126 119 123 137 129 122 122 120 121 126 129 132 137 135 141 139 139 141 143 146 147 143 154 143 143 137 119 108 95 88
266 258 283 225 236 260 289 47 12 83 73 124 158 33 48 94 90 99 134 138 122 135 117 112 125 122 122 123 120 121 124 135 136 138 138 143 148 151 149 150 155 154 157 159 158 140 126 110 102
275 224 238 258 271 287 317 11 344 110 111 179 145 98 87 14 91 132 157 142 131 90 100 112 128 127 127 126 126 127 126 135 132 130 138 146 150 153 151 154 164 167 168 166 173 137 132 134 155
242 268 261 263 264 260 259 30 331 291 161 228 199 127 102 93 125 149 150 130 109 102 104 124 124 125 124 126 126 126 133 134 128 129 135 143 148 151 154 162 167 174 177 180 172 146 148 150 238
271 240 272 269 274 310 66 44 317 270 197 195 247 124 104 128 154 141 137 126 114 118 115 134 113 98 100 105 114 122 120 126 120 126 133 142 148 153 162 170 181 186 210 211 220 193 192 194 213
261 289 275 288 293 291 316 144 223 270 245 209 203 246 128 160 165 142 138 119 121 124 130 143 131 106 86 83 96 104 100 97 94 100 127 131 161 169 178 183 197 209 217 225 247 247 264 217 202
260 285 276 272 277 291 52 25 22 288 275 124 169 220 161 165 150 143 134 142 138 139 145 144 132 145 128 110 93 96 99 98 96 102 112 170 161 194 200 196 205 208 216 221 230 247 265 270 255
278 264 267 270 304 340 75 11 318 286 289 79 45 54 104 150 147 149 160 155 149 157 150 143 142 123 124 136 132 127 129 135 136 136 154 184 221 184 146 65 83 67 238 215 222 226 234 249 251
228 261 261 287 350 324 328 333 298 290 274 196 154 93 120 154 159 163 171 163 162 164 157 157 145 148 164 150 162 151 145 150 126 70 109 69 60 52 68 71 107 123 153 204 221 230 229 231 249
255 256 277 292 322 325 313 307 288 270 249 253 211 146 150 173 178 176 180 167 170 161 164 156 156 161 189 133 169 171 163 141 112 72 77 100 83 26 58 59 17 291 201 235 201 212 224 218 224
266 273 292 297 296 293 263 270 271 258 255 261 244 183 160 178 187 190 187 166 164 160 153 148 157 165 167 121 181 83 82 95 123 86 147 157 129 116 75 45 10 7 3 355 352 17 3 341 330
272 270 258 261 266 262 272 269 271 276 279 282 270 157 166 178 186 193 195 166 157 158 148 157 142 145 146 145 79 79 120 77 101 115 7 258 148 148 154 161 148 210 5 319 319 331 296 269 281
290 294 291 291 286 286 271 266 265 258 267 269 255 170 170 189 192 195 200 171 150 156 151 146 155 143 150 101 104 98 77 107 91 71 32 18 358 87 166 176 183 193 165 342 315 36 336 340 343
311 292 279 265 261 259 258 258 252 260 262 254 240 241 192 179 198 196 206 155 152 156 154 152 137 146 131 127 133 135 148 128 109 99 79 29 31 19 337 53 50 46 57 270 299 339 291 264 277
285 273 271 267 259 251 235 261 267 271 237 234 239 217 223 193 195 199 195 156 166 161 156 161 152 149 143 150 135 128 148 115 119 120 102 71 75 8 325 77 57 357 37 25 19 21 7 347 359
240 261 272 280 278 260 216 268 280 258 257 295 213 211 227 202 200 201 188 169 170 165 152 161 152 158 154 144 131 122 132 128 122 125 118 108 70 17 56 58 59 296 72 57 11 7 53 336 8
259 252 254 262 260 265 239 251 255 263 259 251 287 193 223 217 213 192 184 167 166 164 152 155 155 158 147 152 123 135 137 117 124 108 105 126 97 70 117 79 88 335 52 66 13 8 12 30 27
263 274 282 289 300 309 297 287 286 286 284 283 211 221 248 257 204 193 181 154 159 154 156 160 166 156 160 157 167 156 160 145 118 103 125 118 104 73 58 120 145 73 69 59 24 332 236 60 10
265 275 284 290 282 278 279 279 289 289 276 271 270 234 209 232 262 195 169 148 152 147 152 155 163 161 185 179 181 168 152 145 128 119 119 109 114 99 86 91 71 50 99 66 32 23 329 91 46
261 272 279 281 290 291 298 286 279 263 252 244 246 248 232 204 240 250 153 153 154 159 154 161 167 165 199 203 188 130 116 101 121 126 139 130 117 104 83 54 88 50 70 69 41 11 16 53 105
260 279 283 291 298 284 302 294 295 299 290 273 306 211 225 233 209 265 161 162 164 166 153 169 176 171 188 221 182 159 166 163 164 163 128 126 118 108 94 92 65 61 55 69 75 16 33 351 35
277 276 281 297 290 294 276 270 287 285 310 39 37 31 31 24 10 296 299 175 167 158 160 169 178 175 174 200 151 160 185 196 160 135 133 142 130 131 122 116 105 92 75 53 53 28 19 20 42
309 289 266 270 265 263 275 264 284 281 41 51 41 39 37 25 13 6 3 160 148 141 155 156 184 186 176 176 167 176 224 173 149 139 152 153 147 136 124 110 101 103 89 70 57 57 43 47 31
238 268 263 263 227 249 266 279 286 80 56 62 55 44 40 31 19 9 17 80 124 134 155 161 177 201 176 159 174 198 243 160 153 152 161 156 146 136 136 124 120 96 91 81 82 75 57 44 55
222 226 225 255 267 292 309 251 43 146 91 73 74 58 48 53 59 24 10 19 154 159 167 170 174 199 195 168 179 208 222 157 160 166 176 149 146 138 127 106 105 110 107 99 99 73 81 72 72
228 248 253 260 295 305 252 277 294 78 49 32 47 13 354 25 359 31 70 7 344 173 164 172 178 192 202 186 176 204 188 161 178 168 136 128 114 125 132 121 117 111 107 97 84 95 97 86 84
235 343 220 216 228 239 251 248 245 56 59 36 16 17 335 38 26 4 351 36 333 331 151 147 168 193 207 166 162 170 156 163 130 123 122 121 123 131 132 128 124 123 114 117 117 89 71 82 61
204 222 220 236 221 243 266 252 124 77 352 311 289 338 332 77 46 14 353 349 167 319 59 134 151 174 212 137 124 133 150 147 127 130 129 132 131 138 143 130 128 120 113 87 90 93 77 87 85
172 199 239 233 226 225 262 262 305 46 310 327 332 340 329 88 86 25 2 348 340 189 184 141 155 180 171 169 151 144 141 130 127 129 120 125 133 133 128 129 121 116 115 123 124 94 112 103 90